Regional Weather Roundup
Issued by NWS

Home | Current Version | Previous Version | Graphics & Text | Print | Product List | Glossary On
Versions: 1 2 3 4 5 6 7 8 9 10 11 12 13 14 15 16 17 18 19 20 21 22 23 24 25 26 27 28 29 30 31 32 33 34 35 36 37 38 39 40 41 42 43 44 45 46 47 48 49 50
000
ASUS43 KLMK 231502
RWRKY
KENTUCKY REGIONAL WEATHER ROUNDUP
NATIONAL WEATHER SERVICE LOUISVILLE KY
1000 AM EST MON JAN 23 2017

NOTE "FAIR" INDICATES FEW OR NO CLOUDS BELOW 12,000 FEET
WITH NO SIGNIFICANT WEATHER AND/OR OBSTRUCTIONS TO VISIBILITY.

KYZ001>023-026-027-061>063-070>075-231600-
WESTERN AND SOUTH CENTRAL KENTUCKY

CITY           SKY/WX    TMP DP  RH WIND       PRES   REMARKS
PADUCAH        CLOUDY    43  35  73 NW15      29.74R
HENDERSON      CLOUDY    43  36  75 NW20      29.72R
OWENSBORO      CLOUDY    44  40  85 NW18G24   29.67R
HOPKINSVILLE   CLOUDY    44  40  83 NW15G23   29.67R
BOWLING GREEN  CLOUDY    47  43  86 NW13G20   29.60R
GLASGOW        NOT AVBL
$$

KYZ024-025-028>034-038-045-046-053-231600-
NORTH CENTRAL KENTUCKY

CITY           SKY/WX    TMP DP  RH WIND       PRES   REMARKS
LOUISVILLE/SDF CLOUDY    50  45  83 N17G28    29.56R
LOUISVILLE/LOU CLOUDY    50  45  83 NW15G22   29.57R
FORT KNOX      CLOUDY    47  45  91 NW16G25   29.56R
$$

KYZ035>037-039>044-047>052-055>060-089>105-231600-
NORTHEAST KENTUCKY

CITY           SKY/WX    TMP DP  RH WIND       PRES   REMARKS
LEXINGTON      LGT RAIN  49  47  93 N14G25    29.48R FOG
COVINGTON      CLOUDY    45  43  93 N15G29    29.53R FOG
FRANKFORT      LGT RAIN  50  46  86 N15G21    29.50R
$$

KYZ054-064>069-076>088-106>120-231600-
SOUTHEAST KENTUCKY

CITY           SKY/WX    TMP DP  RH WIND       PRES   REMARKS
JACKSON        LGT RAIN  50  48  93 VRB7      29.38R FOG
LONDON         LGT RAIN  52  49  89 N13G22    29.39R
SOMERSET       NOT AVBL
MIDDLESBORO    LGT RAIN  53  51  91 N9G16     29.35R
MONTICELLO     LGT RAIN  51  49  92 N18G29    29.47R
$$




USA.gov is the U.S. government's official web portal to all federal, state and local government web resources and services.